"Pseudo-MPEC" for SZ01098

Created 2025 Nov 9 8:35:08 UT using Find_Orb

Click here for an explanation of pseudo-MPECs

 
 Astrometry: 
     SZ01098*3C2025 10 28.89234 02 00 44.600+11 04 43.77   ~AVI5 21.3 GqNEOCP095
     SZ01098 3C2025 10 28.98831 02 00 47.040+11 02 11.04   ~AVI5 21.3 GqNEOCP095
     SZ01098*3C2025 10 30.89341 02 02 21.422+10 11 33.97   ~AVI5 21.3 GqNEOCP095
     SZ01098 3C2025 10 30.93900 02 02 22.743+10 10 15.52   ~AVI5 21.3 GqNEOCP095

Station data:
(095) Crimea-Nauchnij  (N44.726555 E34.016000)  Ukraine.  Observer S. Nazarov.
    Measurers A. Novichonok, A. Zhornichenko. 0.64-m reflector + CCD.

Orbital elements:  SZ01098
   Perihelion 2025 Dec 15.147511 +/- 7.99 TT =  3:32:24.9 (JD 2461024.647511)
Epoch 2025 Oct 30.0 TT = JDT 2460978.5   Earth MOID: 0.0768   Ma: 0.0154
M 330.848096668 +/- 3.7             (J2000 ecliptic)             AutoNEOCP
n   0.631711283 +/- 0.0404          Peri.  228.149951 +/- 9
a   1.345210638 +/- 0.0574          Node   212.709273 +/- 0.08
e   0.21804136 +/- 0.0541           Incl.    3.087507 +/- 0.24
P   1.560/569.870d         H 25.64  G  0.15   U 10.6
q 1.051899071 +/- 0.0344    Q 1.638522204 +/- 0.14
From 4 observations 2025 Oct. 28-30; mean residual 0".90
Residuals in arcseconds: 
251028 095  .03+  .80+    251030 095  .24-  1.6+    
251028 095  .03-  .88-    251030 095  .24+  1.5-    

Ephemerides (geocentric):
Date (UTC) HH   RA             Dec           delta  r     elong  mag " sig PA
---- --------  ------------   ------------  ------ ------ -----  --- --------
2025 11 09 09  02 12 31.460   +05 26 33.69  .10059 1.0876 164.1 21.6  472 157
2025 11 09 10  02 12 34.777   +05 25 12.57  .10054 1.0875 164.1 21.6  476 157
2025 11 09 11  02 12 38.100   +05 23 51.41  .10049 1.0875 164.0 21.6  481 157
2025 11 09 12  02 12 41.430   +05 22 30.22  .10043 1.0874 164.0 21.6  485 157
2025 11 09 13  02 12 44.766   +05 21 08.99  .10038 1.0873 163.9 21.6  489 157
2025 11 09 14  02 12 48.107   +05 19 47.73  .10033 1.0872 163.9 21.6  494 157
2025 11 09 15  02 12 51.455   +05 18 26.43  .10028 1.0871 163.9 21.6  498 157
2025 11 09 16  02 12 54.810   +05 17 05.10  .10023 1.0871 163.8 21.6  503 157
2025 11 09 17  02 12 58.170   +05 15 43.73  .10017 1.0870 163.8 21.6  507 157
2025 11 09 18  02 13 01.537   +05 14 22.33  .10012 1.0869 163.7 21.6  512 157
2025 11 09 19  02 13 04.909   +05 13 00.90  .10007 1.0868 163.7 21.6  516 157
2025 11 09 20  02 13 08.288   +05 11 39.43  .10002 1.0867 163.6 21.6  521 157
2025 11 09 21  02 13 11.674   +05 10 17.93  .09997 1.0867 163.6 21.6  526 157
2025 11 09 22  02 13 15.065   +05 08 56.39  .09992 1.0866 163.5 21.6  530 157
2025 11 09 23  02 13 18.463   +05 07 34.82  .09987 1.0865 163.5 21.6  535 157
2025 11 10 00  02 13 21.867   +05 06 13.22  .09981 1.0864 163.5 21.6  540 156
2025 11 10 01  02 13 25.277   +05 04 51.59  .09976 1.0864 163.4 21.6  544 156
2025 11 10 02  02 13 28.693   +05 03 29.92  .09971 1.0863 163.4 21.6  549 156
2025 11 10 03  02 13 32.116   +05 02 08.23  .09966 1.0862 163.3 21.6  554 156
2025 11 10 04  02 13 35.545   +05 00 46.50  .09961 1.0861 163.3 21.6  559 156
2025 11 10 05  02 13 38.981   +04 59 24.74  .09956 1.0860 163.2 21.6  563 156
2025 11 10 06  02 13 42.422   +04 58 02.95  .09951 1.0860 163.2 21.6  568 156
2025 11 10 07  02 13 45.870   +04 56 41.13  .09946 1.0859 163.2 21.6  573 156
2025 11 10 08  02 13 49.324   +04 55 19.27  .09941 1.0858 163.1 21.6  578 156
2025 11 10 09  02 13 52.785   +04 53 57.39  .09936 1.0857 163.1 21.6  583 156
2025 11 10 10  02 13 56.252   +04 52 35.48  .09931 1.0856 163.0 21.6  588 156
2025 11 10 11  02 13 59.725   +04 51 13.54  .09926 1.0856 163.0 21.6  593 156
2025 11 10 12  02 14 03.205   +04 49 51.57  .09921 1.0855 162.9 21.6  598 156
2025 11 10 13  02 14 06.691   +04 48 29.56  .09916 1.0854 162.9 21.6  603 156
2025 11 10 14  02 14 10.183   +04 47 07.53  .09911 1.0853 162.9 21.6  608 156
2025 11 10 15  02 14 13.682   +04 45 45.48  .09906 1.0853 162.8 21.6  613 156
2025 11 10 16  02 14 17.187   +04 44 23.39  .09901 1.0852 162.8 21.6  618 156
2025 11 10 17  02 14 20.698   +04 43 01.27  .09896 1.0851 162.7 21.6  623 156
2025 11 10 18  02 14 24.216   +04 41 39.13  .09891 1.0850 162.7 21.6  628 156
2025 11 10 19  02 14 27.741   +04 40 16.96  .09887 1.0850 162.6 21.6  634 156
2025 11 10 20  02 14 31.271   +04 38 54.76  .09882 1.0849 162.6 21.6  639 156
2025 11 10 21  02 14 34.809   +04 37 32.53  .09877 1.0848 162.5 21.6  644 156
2025 11 10 22  02 14 38.352   +04 36 10.28  .09872 1.0847 162.5 21.6  649 156
2025 11 10 23  02 14 41.902   +04 34 48.00  .09867 1.0846 162.5 21.6  654 156
2025 11 11 00  02 14 45.459   +04 33 25.70  .09862 1.0846 162.4 21.7  660 156
2025 11 11 01  02 14 49.022   +04 32 03.36  .09857 1.0845 162.4 21.7  665 156
2025 11 11 02  02 14 52.591   +04 30 41.01  .09853 1.0844 162.3 21.7  670 156
2025 11 11 03  02 14 56.167   +04 29 18.62  .09848 1.0843 162.3 21.7  676 156
2025 11 11 04  02 14 59.749   +04 27 56.21  .09843 1.0843 162.2 21.7  681 156
2025 11 11 05  02 15 03.338   +04 26 33.78  .09838 1.0842 162.2 21.7  687 156
2025 11 11 06  02 15 06.933   +04 25 11.32  .09833 1.0841 162.2 21.7  692 156
2025 11 11 07  02 15 10.535   +04 23 48.84  .09829 1.0840 162.1 21.7  698 156
2025 11 11 08  02 15 14.144   +04 22 26.33  .09824 1.0840 162.1 21.7  703 156